Location: Passau
(48.5830°N, 13.4830°E)
Time: 00:57:24
(UTC+02:00)

Transit 2A - Pass Details

Date: 09 August 2021
Orbit: 595 x 964 km, 66.7° (Epoch: 17 September)

Event Time Altitude Azimuth Distance (km) Brightness Sun altitude
Exits shadow 04:24:27 - 169° (S) 2,747 8.6 -12.7°
Reaches altitude 10° 04:26:55 10° 152° (SSE) 1,968 8.0 -12.4°
Maximum altitude 04:29:59 19° 108° (ESE) 1,524 8.0 -12.0°
Drops below altitude 10° 04:33:12 10° 64° (ENE) 2,081 9.6 -11.6°
Sets 04:36:10 0° 47° (NE) 3,065 11.3 -11.2°
